1508058000.1,2897,16.69,74938.0,13.89,-16.65,-17.97,0,*76
1508058001.32,2898,16.69,74930.0,13.89,-16.45,-17.63,0,*70
1508058002.57,2899,16.75,74936.0,13.91,-16.75,-17.93,0,*74
1508058003.8,2900,16.69,74934.5,13.93,-16.75,-17.93,0,*77
1508058005.05,2901,16.69,74936.3,13.91,-18.07,-19.31,0,*79
1508058006.24,2902,16.69,74934.5,13.93,-16.97,-18.25,0,*7B
1508058007.47,2903,16.69,74936.3,13.91,-18.73,-20.25,0,*77
1508058008.72,2904,16.75,74942.8,13.91,-18.25,-19.61,0,*79
1508058009.99,2905,16.69,74934.5,13.91,-17.55,-18.89,0,*77
1508058011.23,2906,16.69,74936.3,13.91,-17.79,-19.07,0,*7D
1508058012.5,2907,16.69,74938.8,13.91,-17.25,-18.55,0,*73
1508058013.75,2908,16.69,74938.8,13.91,-18.89,-20.09,0,*77
1508058015.0,2909,16.69,74938.8,13.91,-18.73,-20.15,0,*7E
1508058016.22,2910,16.69,74938.0,13.89,-18.45,-19.81,0,*7D
1508058017.46,2911,16.69,74938.3,13.87,-21.97,-23.49,0,*7A
1508058018.75,2912,16.69,74930.0,13.81,-19.61,-20.53,0,*75
1508058019.98,2913,16.75,74934.3,13.81,-17.49,-18.73,0,*79
1508058021.2,2914,16.75,74934.5,13.81,-16.93,-18.11,0,*7C
1508058022.44,2915,16.69,74934.5,13.81,-17.79,-19.17,0,*7F
1508058023.73,2916,16.69,74932.3,13.85,-17.17,-18.35,0,*71
1508058024.98,2917,16.69,74932.3,13.85,-17.17,-18.49,0,*7B
1508058026.18,2918,16.69,74932.3,13.87,-16.83,-18.11,0,*77
1508058027.38,2919,16.69,74932.5,13.87,-16.41,-17.69,0,*78
1508058028.61,2920,16.69,74932.3,13.89,-16.89,-17.93,0,*7D
1508058029.86,2921,16.69,74932.0,13.89,-17.07,-18.31,0,*7C
1508058031.09,2922,16.69,74938.5,13.91,-16.59,-17.69,0,*7E
1508058032.33,2923,16.69,74924.8,13.91,-17.63,-18.99,0,*77
1508058033.59,2924,16.69,74932.5,13.91,-18.31,-19.51,0,*7D
1508058034.83,2925,16.69,74932.3,13.91,-17.07,-18.25,0,*74
1508058036.11,2926,16.69,74924.0,13.91,-17.07,-18.31,0,*72
1508058037.31,2927,16.75,74936.0,13.93,-16.55,-17.73,0,*7E
1508058038.56,2928,16.69,74934.5,13.91,-17.35,-18.59,0,*73
1508058039.81,2929,16.69,74934.8,13.91,-16.75,-17.93,0,*7E
1508058041.04,2930,16.69,74928.3,13.93,-17.45,-18.69,0,*7C
1508058042.25,2931,16.75,74938.3,13.93,-16.83,-17.87,0,*79
1508058043.44,2932,16.69,74934.5,13.93,-16.45,-17.73,0,*7B
1508058044.68,2933,16.75,74936.0,13.93,-17.45,-18.65,0,*73
1508058045.93,2934,16.69,74938.0,13.93,-17.45,-18.55,0,*77
1508058047.13,2935,16.69,74934.0,13.93,-17.35,-18.49,0,*7C
1508058048.39,2936,16.69,74922.3,13.95,-19.41,-20.89,0,*73
1508058049.63,2937,16.69,74922.8,13.91,-21.97,-23.39,0,*7E
1508058050.86,2938,16.69,74926.5,13.87,-18.65,-19.85,0,*7F
1508058052.08,2939,16.75,74930.0,13.87,-17.17,-18.45,0,*79
1508058053.33,2940,16.75,74928.8,13.89,-17.21,-18.55,0,*7D
1508058054.55,2941,16.69,74928.3,13.87,-17.87,-19.27,0,*7A
1508058055.77,2942,16.69,74930.8,13.89,-17.79,-19.03,0,*70
1508058057.0,2943,16.69,74930.8,13.89,-17.41,-18.73,0,*7C
1508058058.21,2944,16.69,74932.5,13.89,-16.59,-17.83,0,*73
1508058059.44,2945,16.69,74932.3,13.89,-16.79,-17.97,0,*75
1508058060.67,2946,16.69,74932.3,13.89,-16.75,-17.93,0,*7E
1508058061.92,2947,16.69,74932.3,13.91,-17.07,-18.45,0,*76
1508058063.17,2948,16.69,74930.3,13.91,-17.41,-18.69,0,*75
1508058064.45,2949,16.75,74934.8,13.91,-16.51,-17.79,0,*7A
1508058065.69,2950,16.69,74934.5,13.91,-17.11,-18.41,0,*73
1508058066.92,2951,16.69,74926.5,13.93,-17.49,-18.93,0,*72
1508058068.17,2952,16.69,74930.3,13.93,-18.01,-19.41,0,*7C
1508058069.39,2953,16.69,74930.3,13.93,-18.49,-19.85,0,*79
1508058070.65,2954,16.69,74928.0,13.91,-19.23,-20.59,0,*7A
1508058071.91,2955,16.69,74932.0,13.89,-21.03,-22.77,0,*75
1508058073.13,2956,16.69,74934.5,13.87,-22.77,-24.47,0,*7D
1508058074.36,2957,16.69,74922.5,13.77,-24.31,-25.91,0,*7D
1508058075.62,2958,16.69,74926.3,13.73,-21.73,-23.29,0,*70
1508058076.84,2959,16.69,74920.5,13.71,-21.33,-22.87,0,*72
1508058078.1,2960,16.69,74924.0,13.69,-19.95,-21.27,0,*7F
1508058079.38,2961,16.69,74922.0,13.69,-19.65,-21.03,0,*77
1508058080.61,2962,16.69,74918.0,13.69,-19.95,-21.47,0,*7B
1508058081.87,2963,16.69,74916.3,13.67,-19.23,-20.49,0,*76
1508058083.07,2964,16.69,74920.5,13.67,-19.03,-20.09,0,*77
1508058084.28,2965,16.69,74916.3,13.67,-19.07,-20.43,0,*7C
1508058085.53,2966,16.69,74914.8,13.65,-18.79,-20.15,0,*76
1508058086.76,2967,16.69,74918.5,13.65,-19.37,-20.69,0,*77
1508058087.99,2968,16.69,74918.3,13.65,-18.17,-19.47,0,*7D
1508058089.21,2969,16.69,74916.0,13.67,-17.59,-19.03,0,*7B
1508058090.47,2970,16.69,74922.8,13.69,-17.41,-18.73,0,*72
1508058091.71,2971,16.69,74922.0,13.69,-17.55,-19.03,0,*70
1508058092.93,2972,16.69,74922.3,13.71,-17.93,-19.17,0,*75
1508058094.12,2973,16.69,74928.5,13.71,-17.69,-18.99,0,*76
1508058095.38,2974,16.69,74914.8,13.73,-19.75,-21.23,0,*7B
1508058096.61,2975,16.69,74916.5,13.71,-19.51,-20.83,0,*75
1508058097.81,2976,16.69,74922.8,13.71,-18.21,-19.51,0,*75
1508058099.01,2977,16.69,74920.3,13.71,-18.69,-20.05,0,*73
1508058100.29,2978,16.69,74916.5,13.69,-20.99,-22.47,0,*75
1508058101.57,2979,16.69,74924.5,13.69,-17.93,-19.31,0,*73
1508058102.79,2980,16.69,74924.0,13.69,-18.07,-19.51,0,*71
1508058104.04,2981,16.69,74924.5,13.69,-17.55,-18.83,0,*76
1508058105.26,2982,16.69,74920.8,13.69,-18.07,-19.51,0,*73
1508058106.51,2983,16.69,74916.5,13.71,-18.35,-19.65,0,*7D
1508058107.71,2984,16.69,74922.3,13.71,-17.31,-18.69,0,*7C
1508058108.93,2985,16.69,74928.0,13.71,-18.25,-19.65,0,*7A
1508058110.22,2986,16.69,74924.8,13.73,-19.61,-20.99,0,*73
1508058111.44,2987,16.69,74924.0,13.71,-18.07,-19.31,0,*79
1508058112.63,2988,16.69,74922.5,13.71,-17.69,-18.99,0,*72
1508058113.87,2989,16.69,74922.3,13.71,-17.21,-18.55,0,*7F
1508058115.06,2990,16.69,74922.3,13.71,-17.49,-18.83,0,*72
1508058116.34,2991,16.69,74918.3,13.73,-17.79,-19.27,0,*7D
1508058117.56,2992,16.69,74918.3,13.73,-17.49,-18.79,0,*77
1508058118.77,2993,16.69,74918.0,13.75,-16.97,-18.11,0,*7C
1508058119.99,2994,16.69,74914.3,13.77,-17.31,-18.65,0,*77
1508058121.24,2995,16.69,74916.5,13.77,-17.45,-18.79,0,*78
1508058122.46,2996,16.69,74918.5,13.79,-17.79,-19.03,0,*76
1508058123.7,2997,16.69,74922.0,13.77,-17.69,-18.93,0,*70
1508058124.93,2998,16.69,74920.0,13.81,-18.07,-19.37,0,*7E
1508058126.16,2999,16.69,74924.3,13.79,-17.93,-19.13,0,*7C
1508058127.36,3000,16.69,74926.0,13.79,-17.49,-18.69,0,*7F
1508058128.59,3001,16.69,74924.8,13.79,-17.41,-18.69,0,*76
1508058129.8,3002,16.69,74928.8,13.81,-16.93,-18.21,0,*70
1508058131.06,3003,16.69,74926.5,13.85,-18.07,-19.41,0,*71
1508058132.28,3004,16.69,74932.5,13.81,-17.73,-19.17,0,*7D
1508058133.53,3005,16.69,74932.0,13.85,-17.45,-18.65,0,*79
1508058134.79,3006,16.69,74928.8,13.85,-17.17,-18.41,0,*7B
1508058136.04,3007,16.69,74932.5,13.85,-16.45,-17.63,0,*73
1508058137.24,3008,16.69,74934.5,13.87,-16.79,-17.87,0,*7B
1508058138.46,3009,16.69,74934.3,13.89,-16.79,-17.93,0,*71
1508058139.7,3010,16.69,74940.5,13.93,-16.41,-17.59,0,*7F
1508058140.92,3011,16.69,74938.3,13.93,-17.21,-18.41,0,*7F
1508058142.14,3012,16.69,74932.3,13.91,-17.69,-18.83,0,*7C
1508058143.41,3013,16.69,74932.3,13.91,-17.07,-18.55,0,*7E
1508058144.64,3014,16.69,74924.5,13.93,-18.25,-19.57,0,*77
1508058145.88,3015,16.69,74924.5,13.93,-17.63,-18.89,0,*79
1508058147.16,3016,16.69,74932.3,13.91,-17.03,-18.31,0,*7D
1508058148.39,3017,16.69,74932.0,13.91,-18.17,-19.37,0,*71
1508058149.63,3018,16.69,74934.0,13.91,-17.63,-19.07,0,*71
1508058150.87,3019,16.69,74934.5,13.91,-17.55,-18.83,0,*78
1508058152.12,3020,16.69,74930.3,13.91,-17.07,-18.45,0,*7F
1508058153.34,3021,16.69,74932.8,13.91,-17.49,-18.69,0,*7A
1508058154.57,3022,16.69,74934.8,13.93,-16.97,-18.35,0,*70
1508058155.8,3023,16.69,74932.8,13.93,-16.97,-18.35,0,*71
1508058157.0,3024,16.69,74936.0,13.93,-16.97,-18.21,0,*73
1508058158.25,3025,16.69,74936.3,13.95,-17.17,-18.49,0,*73
1508058159.47,3026,16.69,74930.5,13.97,-17.59,-18.79,0,*7B
1508058160.75,3027,16.69,74936.3,13.95,-17.17,-18.31,0,*7E
1508058161.97,3028,16.69,74938.3,13.97,-17.25,-18.49,0,*7D
1508058163.2,3029,16.69,74940.3,13.95,-18.07,-19.37,0,*79
1508058164.45,3030,16.69,74942.5,13.95,-17.17,-18.45,0,*7B
1508058165.7,3031,16.69,74940.3,13.95,-17.69,-18.93,0,*78
1508058166.94,3032,16.69,74938.5,13.95,-17.31,-18.59,0,*70
1508058168.18,3033,16.69,74936.0,13.95,-17.45,-18.79,0,*70
1508058169.42,3034,16.69,74940.3,13.97,-19.57,-20.93,0,*77
1508058170.62,3035,16.69,74934.8,13.93,-18.25,-19.75,0,*74
1508058171.87,3036,16.69,74936.3,13.95,-18.07,-19.27,0,*76
1508058173.07,3037,16.69,74932.8,13.93,-18.79,-20.05,0,*72
1508058174.32,3038,16.69,74938.0,13.91,-18.25,-19.61,0,*7E
1508058175.52,3039,16.69,74936.0,13.93,-17.49,-18.79,0,*70
1508058176.77,3040,16.69,74936.3,13.91,-19.07,-20.53,0,*7B
1508058178.05,3041,16.69,74938.3,13.91,-18.55,-19.81,0,*79
1508058179.27,3042,16.69,74938.3,13.91,-18.45,-19.91,0,*7A
1508058180.47,3043,16.69,74938.5,13.89,-18.45,-19.75,0,*78
1508058181.73,3044,16.69,74940.0,13.89,-19.61,-21.03,0,*72
1508058182.93,3045,16.69,74942.5,13.87,-20.63,-22.07,0,*72
1508058184.19,3046,16.69,74942.5,13.81,-21.97,-23.69,0,*74
1508058185.42,3047,16.69,74936.8,13.79,-22.63,-24.25,0,*75
1508058186.68,3048,16.69,74934.0,13.77,-23.79,-25.55,0,*78
1508058187.95,3049,16.69,74938.3,13.69,-22.73,-24.41,0,*79
1508058189.18,3050,16.69,74932.8,13.67,-23.13,-24.71,0,*7B
1508058190.4,3051,16.69,74936.0,13.63,-23.69,-25.39,0,*7E
1508058191.63,3052,16.69,74928.8,13.55,-21.47,-22.97,0,*75
1508058192.84,3053,16.69,74930.0,13.53,-22.07,-23.65,0,*79
1508058194.06,3054,16.69,74928.0,13.51,-21.17,-22.63,0,*79
1508058195.3,3055,16.69,74932.5,13.51,-20.09,-21.57,0,*72
1508058196.53,3056,16.69,74934.0,13.51,-19.81,-21.13,0,*7B
1508058197.78,3057,16.69,74928.5,13.51,-19.17,-20.53,0,*70
1508058199.04,3058,16.69,74926.3,13.49,-18.35,-19.57,0,*79
1508058200.29,3059,16.69,74926.3,13.49,-17.97,-19.27,0,*78
1508058201.51,3060,16.69,74922.8,13.55,-17.87,-19.37,0,*7F
1508058202.75,3061,16.69,74928.3,13.53,-19.23,-20.43,0,*71
1508058203.97,3062,16.69,74930.5,13.55,-17.83,-19.17,0,*7B
1508058205.21,3063,16.69,74922.5,13.55,-20.09,-21.53,0,*77
1508058206.43,3064,16.69,74928.3,13.51,-18.65,-20.05,0,*77
1508058207.68,3065,16.69,74924.0,13.53,-18.01,-19.27,0,*7C
1508058208.91,3066,16.69,74922.5,13.53,-18.35,-19.71,0,*7B
1508058210.13,3067,16.69,74926.5,13.55,-18.41,-19.71,0,*7F
1508058211.35,3068,16.69,74926.8,13.55,-18.25,-19.51,0,*70
1508058212.57,3069,16.69,74928.3,13.57,-17.83,-19.03,0,*77
1508058213.8,3070,16.69,74928.5,13.59,-18.59,-20.05,0,*75
1508058215.02,3071,16.69,74930.0,13.59,-18.21,-19.41,0,*71
1508058216.22,3072,16.63,74924.8,13.59,-17.69,-19.13,0,*76
1508058217.43,3073,16.69,74926.5,13.59,-17.35,-18.69,0,*72
1508058218.66,3074,16.69,74924.0,13.63,-17.41,-18.69,0,*7F
1508058219.85,3075,16.69,74926.5,13.59,-18.17,-19.47,0,*76
1508058221.09,3076,16.69,74930.5,13.63,-19.27,-20.69,0,*78
1508058222.29,3077,16.69,74928.8,13.63,-18.99,-20.29,0,*79
1508058223.52,3078,16.69,74928.8,13.59,-18.11,-19.41,0,*7B
1508058224.71,3079,16.69,74930.5,13.63,-17.73,-19.07,0,*7A
1508058225.94,3080,16.63,74926.5,13.65,-17.63,-19.07,0,*7B
1508058227.2,3081,16.69,74926.8,13.65,-18.07,-19.41,0,*75
1508058228.45,3082,16.69,74930.3,13.65,-17.25,-18.45,0,*7C
1508058229.68,3083,16.63,74924.8,13.69,-17.83,-19.17,0,*7B
1508058230.94,3084,16.69,74924.3,13.67,-17.97,-19.31,0,*73
1508058232.16,3085,16.69,74926.8,13.67,-17.59,-18.73,0,*77
1508058233.36,3086,16.63,74926.8,13.67,-17.69,-18.79,0,*7D
1508058234.59,3087,16.69,74928.8,13.69,-17.49,-18.73,0,*7A
1508058235.84,3088,16.69,74924.0,13.69,-17.93,-19.17,0,*71
1508058237.05,3089,16.69,74924.8,13.71,-17.63,-19.03,0,*73
1508058238.25,3090,16.63,74924.0,13.71,-17.49,-18.73,0,*75
1508058239.46,3091,16.69,74928.8,13.75,-17.83,-19.17,0,*75
1508058240.71,3092,16.69,74930.3,13.73,-17.87,-19.23,0,*73
1508058241.94,3093,16.69,74928.0,13.75,-18.31,-19.71,0,*71
1508058243.18,3094,16.63,74930.3,13.73,-17.79,-19.07,0,*72
1508058244.44,3095,16.69,74932.5,13.73,-18.07,-19.31,0,*70
1508058245.66,3096,16.63,74928.0,13.75,-17.21,-18.25,0,*7A
1508058246.89,3097,16.69,74928.8,13.77,-17.87,-19.17,0,*75
1508058248.16,3098,16.63,74930.8,13.81,-17.97,-19.23,0,*75
1508058249.41,3099,16.63,74928.8,13.77,-17.55,-18.65,0,*70
1508058250.66,3100,16.69,74930.0,13.77,-17.69,-18.93,0,*77
1508058251.91,3101,16.69,74930.8,13.77,-18.11,-19.41,0,*78
1508058253.2,3102,16.63,74932.0,13.77,-18.35,-19.57,0,*7A
1508058254.42,3103,16.69,74932.8,13.79,-18.31,-19.51,0,*77
1508058255.67,3104,16.69,74932.0,13.77,-18.25,-19.41,0,*7A
1508058256.91,3105,16.63,74930.8,13.77,-19.37,-20.63,0,*73
1508058258.19,3106,16.63,74930.0,13.77,-19.41,-20.49,0,*79
1508058259.44,3107,16.63,74926.0,13.75,-20.35,-21.53,0,*79
1508058260.69,3108,16.63,74926.8,13.73,-18.55,-19.71,0,*76
1508058261.94,3109,16.69,74920.5,13.75,-17.59,-18.89,0,*74
1508058263.14,3110,16.63,74910.5,13.75,-19.03,-20.29,0,*7C
1508058264.42,3111,16.63,74946.0,13.77,-18.59,-19.65,0,*73
1508058265.67,3112,16.69,74928.3,13.73,-19.91,-21.33,0,*79
1508058266.93,3113,16.63,74916.0,13.73,-19.07,-20.19,0,*7E
1508058268.16,3114,16.63,74912.3,13.75,-17.83,-18.93,0,*74
1508058269.38,3115,16.63,74920.3,13.75,-17.73,-18.93,0,*7A
1508058270.67,3116,16.69,74922.8,13.73,-18.31,-19.41,0,*78
1508058271.86,3117,16.63,74912.5,13.75,-17.87,-19.07,0,*7F
1508058273.06,3118,16.63,74912.8,13.75,-18.45,-19.71,0,*70
1508058274.32,3119,16.69,74920.3,13.73,-18.93,-20.05,0,*75
1508058275.61,3120,16.63,74916.3,13.73,-18.35,-19.61,0,*7B
1508058276.83,3121,16.69,74926.0,13.75,-18.01,-19.37,0,*78
1508058278.11,3122,16.63,74922.8,13.77,-18.35,-19.41,0,*7F
1508058279.38,3123,16.69,74924.5,13.73,-19.47,-20.49,0,*7C
1508058280.58,3124,16.63,74922.5,13.75,-18.11,-19.17,0,*7E
1508058281.81,3125,16.69,74926.3,13.73,-18.49,-19.75,0,*70
1508058283.07,3126,16.63,74922.8,13.73,-19.71,-20.83,0,*7A
1508058284.29,3127,16.63,74924.8,13.71,-18.35,-19.47,0,*7A
1508058285.5,3128,16.63,74924.8,13.71,-17.63,-18.83,0,*70
1508058286.72,3129,16.63,74928.3,13.71,-17.35,-18.55,0,*79
1508058287.95,3130,16.63,74930.8,13.71,-18.07,-19.27,0,*7B
1508058289.17,3131,16.63,74930.0,13.71,-17.21,-18.21,0,*76
1508058290.4,3132,16.69,74930.5,13.75,-16.97,-18.01,0,*7F
1508058291.65,3133,16.63,74928.3,13.73,-17.25,-18.21,0,*72
1508058292.9,3134,16.63,74926.5,13.77,-17.31,-18.31,0,*75
1508058294.11,3135,16.63,74930.3,13.75,-18.73,-19.95,0,*70
1508058295.34,3136,16.63,74926.3,13.75,-17.83,-18.93,0,*74
1508058296.57,3137,16.63,74928.3,13.75,-17.07,-18.11,0,*73
1508058297.82,3138,16.63,74932.3,13.77,-17.87,-18.89,0,*77
1508058299.08,3139,16.63,74928.5,13.77,-17.97,-19.17,0,*71
1508058300.33,3140,16.63,74928.8,13.77,-17.55,-18.49,0,*7B
1508058301.58,3141,16.63,74930.0,13.77,-17.41,-18.49,0,*7F
1508058302.83,3142,16.63,74930.0,13.77,-17.11,-18.17,0,*72
1508058304.03,3143,16.63,74928.8,13.79,-16.75,-17.83,0,*7C
1508058305.26,3144,16.63,74930.0,13.81,-18.25,-19.37,0,*76
1508058306.48,3145,16.63,74934.0,13.79,-17.21,-18.21,0,*7D
1508058307.71,3146,16.63,74926.5,13.79,-17.25,-18.45,0,*78
1508058308.96,3147,16.63,74932.0,13.81,-18.31,-19.47,0,*77
1508058310.18,3148,16.63,74930.3,13.81,-17.83,-18.99,0,*7C
1508058311.4,3149,16.63,74930.3,13.81,-18.21,-19.37,0,*7F
1508058312.65,3150,16.63,74928.0,13.81,-17.17,-18.21,0,*7B
1508058313.87,3151,16.63,74928.5,13.85,-17.31,-18.41,0,*7C
1508058315.1,3152,16.63,74930.8,13.85,-16.75,-17.73,0,*70
1508058316.3,3153,16.63,74928.5,13.87,-16.79,-17.87,0,*74
1508058317.56,3154,16.63,74930.0,13.89,-17.25,-18.31,0,*77
1508058318.76,3155,16.63,74928.3,13.89,-17.35,-18.45,0,*74
1508058319.99,3156,16.63,74930.0,13.89,-17.63,-18.73,0,*71
1508058321.24,3157,16.63,74930.0,13.87,-17.11,-18.31,0,*7D
1508058322.46,3158,16.63,74928.8,13.89,-17.11,-18.11,0,*7E
1508058323.69,3159,16.63,74928.5,13.89,-18.45,-19.65,0,*73
1508058324.91,3160,16.63,74930.0,13.87,-18.17,-19.31,0,*71
1508058326.15,3161,16.63,74932.3,13.89,-18.31,-19.37,0,*7C
1508058327.4,3162,16.63,74926.3,13.91,-18.41,-19.61,0,*72
1508058328.6,3163,16.63,74934.8,13.89,-17.35,-18.41,0,*75
1508058329.8,3164,16.63,74930.3,13.89,-17.83,-19.03,0,*78
1508058331.02,3165,16.63,74934.5,13.89,-17.55,-18.83,0,*7B
1508058332.26,3166,16.63,74934.8,13.87,-17.25,-18.35,0,*7C
1508058333.49,3167,16.63,74932.3,13.89,-18.55,-19.51,0,*78
1508058334.71,3168,16.63,74936.3,13.89,-17.79,-19.03,0,*71
1508058335.9,3169,16.63,74928.8,13.89,-17.69,-18.83,0,*78
1508058337.1,3170,16.63,74932.0,13.89,-18.73,-19.75,0,*7C
1508058338.32,3171,16.63,74934.5,13.89,-17.49,-18.55,0,*78
1508058339.55,3172,16.63,74934.0,13.89,-16.45,-17.55,0,*79
1508058340.78,3173,16.63,74928.5,13.89,-17.03,-18.11,0,*74
1508058342.01,3174,16.63,74932.0,13.93,-16.55,-17.63,0,*70
1508058343.24,3175,16.63,74934.0,13.93,-16.69,-17.73,0,*7F
1508058344.46,3176,16.63,74932.0,13.93,-16.45,-17.45,0,*77
1508058345.72,3177,16.63,74932.3,13.97,-16.65,-17.55,0,*71
1508058346.94,3178,16.63,74928.8,13.97,-17.59,-18.65,0,*7C
1508058348.18,3179,16.63,74932.8,13.99,-16.89,-17.93,0,*79
1508058349.45,3180,16.63,74930.8,13.99,-17.41,-18.59,0,*73
1508058350.7,3181,16.63,74930.3,14.01,-17.11,-18.31,0,*7F
1508058351.93,3182,16.63,74932.8,13.99,-16.03,-16.97,0,*7A
1508058353.12,3183,16.63,74932.5,14.01,-16.79,-17.69,0,*70
1508058354.37,3184,16.63,74928.0,14.01,-16.65,-17.55,0,*75
1508058355.6,3185,16.63,74934.5,14.05,-17.31,-18.35,0,*79
1508058356.82,3186,16.63,74940.8,14.05,-16.65,-17.69,0,*7C
1508058358.05,3187,16.63,74942.3,14.03,-17.63,-18.83,0,*77
1508058359.32,3188,16.63,74934.8,14.03,-17.21,-18.55,0,*75
1508058360.56,3189,16.63,74930.3,14.03,-18.11,-19.41,0,*7C
1508058361.78,3190,16.63,74926.8,14.03,-17.49,-18.65,0,*71
1508058363.01,3191,16.63,74924.3,14.05,-17.17,-18.21,0,*7D
1508058364.23,3192,16.63,74928.3,14.09,-16.83,-18.01,0,*7C
1508058365.45,3193,16.63,74932.3,14.05,-17.31,-18.35,0,*7E
1508058366.68,3194,16.63,74934.5,14.05,-17.17,-18.21,0,*78
1508058367.89,3195,16.63,74936.8,14.09,-17.25,-18.41,0,*72
1508058369.12,3196,16.63,74932.0,14.05,-18.31,-19.51,0,*77
1508058370.38,3197,16.63,74936.5,14.05,-17.41,-18.35,0,*7D
1508058371.6,3198,16.63,74936.3,14.05,-17.55,-18.73,0,*75
1508058372.8,3199,16.63,74944.0,14.09,-16.79,-17.83,0,*77
1508058374.02,3200,16.63,74936.3,14.09,-16.83,-18.01,0,*74
1508058375.24,3201,16.63,74938.0,14.09,-17.35,-18.59,0,*74
1508058376.43,3202,16.63,74938.8,14.09,-17.35,-18.41,0,*7E
1508058377.66,3203,16.63,74934.3,14.11,-17.63,-18.79,0,*7E
1508058378.88,3204,16.63,74936.0,14.09,-17.21,-18.17,0,*7E
1508058380.08,3205,16.63,74928.3,14.09,-17.87,-19.17,0,*72
1508058381.29,3206,16.63,74930.3,14.09,-17.83,-18.89,0,*73
1508058382.51,3207,16.63,74932.8,14.11,-17.35,-18.45,0,*76
1508058383.75,3208,16.63,74930.3,14.11,-16.93,-18.01,0,*74
1508058384.95,3209,16.63,74926.0,14.13,-16.93,-18.07,0,*71
1508058386.16,3210,16.63,74928.0,14.13,-16.79,-17.93,0,*7F
1508058387.36,3211,16.63,74926.0,14.13,-16.93,-18.07,0,*78
1508058388.6,3212,16.63,74928.8,14.15,-17.63,-18.73,0,*70
1508058389.82,3213,16.63,74924.5,14.15,-16.75,-17.73,0,*78
1508058391.04,3214,16.63,74930.3,14.13,-17.03,-18.25,0,*75
1508058392.25,3215,16.63,74928.5,14.17,-18.83,-20.15,0,*7F
1508058393.5,3216,16.63,74924.3,14.17,-17.79,-18.93,0,*73
1508058394.74,3217,16.63,74924.3,14.15,-18.25,-19.31,0,*7F
1508058395.98,3218,16.63,74926.8,14.15,-17.31,-18.35,0,*7F
1508058397.23,3219,16.63,74920.8,14.15,-18.83,-19.81,0,*76
1508058398.44,3220,16.63,74926.5,14.17,-17.79,-18.83,0,*77
1508058399.66,3221,16.63,74924.0,14.15,-17.73,-18.73,0,*71
1508058400.91,3222,16.63,74924.0,14.15,-17.21,-18.21,0,*72
1508058402.15,3223,16.63,74920.5,14.15,-17.93,-19.03,0,*7B
1508058403.37,3224,16.63,74918.5,14.17,-17.17,-18.45,0,*71
1508058404.62,3225,16.63,74918.3,14.15,-18.11,-19.27,0,*7E
1508058405.89,3226,16.63,74916.5,14.15,-18.55,-19.61,0,*7F
1508058407.13,3227,16.63,74920.5,14.15,-18.21,-19.31,0,*78
1508058408.37,3228,16.63,74912.3,14.15,-19.81,-21.17,0,*73
1508058409.57,3229,16.63,74916.0,14.13,-18.41,-19.91,0,*7C
1508058410.79,3230,16.63,74926.5,14.11,-18.45,-19.51,0,*7E
1508058412.05,3231,16.63,74922.5,14.11,-17.55,-18.55,0,*74
1508058413.27,3232,16.63,74920.8,14.11,-16.79,-17.69,0,*78
1508058414.51,3233,16.63,74926.0,14.13,-16.69,-17.63,0,*70
1508058415.71,3234,16.63,74922.0,14.13,-16.59,-17.49,0,*7C
1508058416.96,3235,16.63,74926.8,14.15,-16.75,-17.79,0,*76
1508058418.2,3236,16.63,74926.5,14.15,-16.79,-17.93,0,*7D
1508058419.45,3237,16.63,74926.5,14.15,-17.35,-18.35,0,*76
1508058420.69,3238,16.63,74926.5,14.17,-17.45,-18.59,0,*76
1508058421.93,3239,16.63,74926.0,14.19,-17.63,-18.65,0,*72
1508058423.15,3240,16.56,74924.3,14.19,-17.49,-18.69,0,*78
1508058424.39,3241,16.63,74924.5,14.19,-17.49,-18.55,0,*76
1508058425.6,3242,16.63,74926.8,14.19,-17.35,-18.41,0,*7B
1508058426.83,3243,16.63,74922.8,14.17,-17.25,-18.21,0,*73
1508058428.1,3244,16.63,74928.0,14.19,-17.07,-18.01,0,*78
1508058429.35,3245,16.63,74928.5,14.21,-16.97,-18.01,0,*7A
1508058430.63,3246,16.63,74930.0,14.21,-17.21,-18.31,0,*76
1508058431.92,3247,16.63,74928.3,14.21,-17.07,-17.97,0,*70
1508058433.15,3248,16.63,74928.3,14.21,-17.35,-18.45,0,*7E
1508058434.39,3249,16.63,74928.3,14.23,-16.31,-17.21,0,*75
1508058435.61,3250,16.63,74932.3,14.25,-15.95,-16.89,0,*75
1508058436.86,3251,16.63,74926.8,14.25,-16.37,-17.25,0,*78
1508058438.11,3252,16.63,74930.8,14.27,-16.51,-17.41,0,*7B
1508058439.37,3253,16.56,74930.0,14.27,-16.09,-17.03,0,*71
1508058440.62,3254,16.63,74930.3,14.27,-16.13,-17.17,0,*78
1508058441.87,3255,16.63,74928.3,14.33,-16.31,-17.31,0,*78
1508058443.09,3256,16.63,74926.5,14.35,-16.75,-17.79,0,*71
1508058444.33,3257,16.63,74926.8,14.33,-17.93,-18.99,0,*7E
1508058445.55,3258,16.56,74926.8,14.35,-16.93,-17.93,0,*73
1508058446.8,3259,16.63,74926.0,14.33,-16.51,-17.49,0,*7D
1508058448.02,3260,16.56,74928.8,14.35,-17.45,-18.41,0,*72
1508058449.22,3261,16.63,74932.0,14.35,-16.89,-17.83,0,*73
1508058450.48,3262,16.63,74930.0,14.37,-18.93,-20.05,0,*7D
1508058451.71,3263,16.63,74932.0,14.37,-17.49,-18.49,0,*77
1508058452.93,3264,16.63,74932.0,14.35,-17.21,-18.21,0,*72
1508058454.16,3265,16.63,74932.5,14.35,-17.97,-19.17,0,*7A
1508058455.35,3266,16.56,74932.3,14.35,-17.69,-18.69,0,*70
1508058456.54,3267,16.56,74932.5,14.35,-17.87,-18.83,0,*75
1508058457.76,3268,16.56,74932.0,14.35,-17.21,-18.25,0,*7A
1508058458.98,3269,16.56,74930.3,14.35,-16.79,-17.79,0,*71
1508058460.24,3270,16.63,74932.8,14.37,-16.09,-16.97,0,*7D
1508058461.49,3271,16.56,74930.0,14.37,-17.31,-18.35,0,*70
1508058462.72,3272,16.56,74926.8,14.37,-16.41,-17.31,0,*7E
1508058463.95,3273,16.63,74928.5,14.41,-16.83,-17.87,0,*7D
1508058465.17,3274,16.56,74928.5,14.39,-16.37,-17.41,0,*70
1508058466.42,3275,16.56,74930.8,14.41,-16.93,-17.97,0,*7B
1508058467.69,3276,16.63,74934.3,14.41,-16.31,-17.11,0,*7E
1508058468.91,3277,16.56,74930.3,14.45,-15.95,-16.83,0,*7C
1508058470.16,3278,16.63,74932.0,14.45,-16.59,-17.63,0,*7F
1508058471.35,3279,16.56,74930.8,14.47,-16.97,-18.07,0,*73
1508058472.58,3280,16.56,74934.3,14.47,-16.55,-17.59,0,*7F
1508058473.79,3281,16.63,74932.3,14.49,-17.87,-19.07,0,*7B
1508058475.04,3282,16.56,74932.0,14.49,-17.07,-18.17,0,*70
1508058476.25,3283,16.56,74934.3,14.47,-17.63,-18.69,0,*74
1508058477.47,3284,16.56,74934.5,14.47,-17.35,-18.35,0,*79
1508058478.72,3285,16.56,74934.3,14.49,-17.45,-18.45,0,*76
1508058479.97,3286,16.56,74940.8,14.49,-17.41,-18.45,0,*71
1508058481.19,3287,16.63,74936.3,14.47,-18.55,-19.75,0,*76
1508058482.41,3288,16.56,74932.3,14.47,-18.17,-19.41,0,*78
1508058483.63,3289,16.56,74938.3,14.47,-17.87,-18.93,0,*71
1508058484.88,3290,16.56,74940.0,14.49,-17.07,-17.87,0,*75
1508058486.11,3291,16.56,74936.3,14.53,-17.25,-18.25,0,*78
1508058487.36,3292,16.56,74934.8,14.49,-18.45,-19.57,0,*7D
1508058488.58,3293,16.63,74934.8,14.47,-18.41,-19.31,0,*76
1508058489.79,3294,16.56,74930.0,14.47,-17.79,-18.83,0,*7D
1508058491.0,3295,16.56,74932.0,14.47,-19.13,-20.25,0,*79
1508058492.22,3296,16.56,74932.3,14.47,-17.17,-18.21,0,*7F
1508058493.46,3297,16.56,74936.0,14.47,-16.69,-17.79,0,*74
1508058494.69,3298,16.56,74932.5,14.47,-19.47,-20.53,0,*74
1508058495.9,3299,16.56,74934.5,14.47,-17.63,-18.69,0,*7F
1508058497.13,3300,16.56,74934.5,14.47,-17.35,-18.35,0,*74
1508058498.34,3301,16.56,74938.5,14.47,-17.79,-18.83,0,*70
1508058499.59,3302,16.63,74936.3,14.45,-18.49,-19.57,0,*75
1508058500.78,3303,16.56,74936.8,14.47,-17.87,-19.07,0,*7E